sat.trackr.live / text

‹ back to catalog

STARLINK-36400

NORAD 67575 · 2026-016Q

PAYLOAD ACTIVE UNKNOWN

§ Identity

Operator
Country
US
Launch date
2026-01-25
Launch site
AFWTR
Launch vehicle
Mass (kg)
RCS (m²)

Purposes: comms

External: N2YO · Heavens-Above · Gunter

§ Orbital elements

Epoch: 2026-05-25T03:38:30.333408Z

Period
93.91 min
Inclination
97.2854°
Eccentricity
0.0001155
Mean motion
15.33427859 rev/d
Perigee alt
464.8 km
Apogee alt
466.4 km
Semi-major
6,843.7 km
B*
5.6319e-4
RAAN
205.5077°
Arg perigee
99.7038°
Mean anomaly
260.4335°
Rev number
1,858

§ Raw data

STARLINK-364001 67575U 26016Q   26145.15173997  .00018141  00000+0  56319-3 0  99962 67575  97.2854 205.5077 0001155  99.7038 260.4335 15.33427859 18583

JSON: /api/v1/satellites/67575 · /tle

For live sub-satellite position, see the globe view (requires WebGL).

§ Visibility from observer

Set your observer location to see the next 7 days of passes ≥ 10°. The values pass through the URL so the page stays shareable.

No JS? Fill the form by hand. The geolocation button needs JavaScript.